Location: Bednik
(45.3500°N, 16.3833°E)
Time: 16:21:57
(UTC+00:00)

Cosmos 1821 Rocket - Pass Details

Date: 08 August 2020
Orbit: 946 x 1004 km, 82.9° (Epoch: 24 September)

Event Time Altitude Azimuth Distance (km) Brightness Sun altitude
Rises 19:43:10 0° 192° (SSW) 3,609 6.7 -14.3°
Reaches altitude 10° 19:45:39 10° 194° (SSW) 2,672 6.0 -14.7°
Maximum altitude 19:51:45 74° 279° (W) 1,002 4.2 -15.5°
Drops below altitude 10° 19:58:00 10° 5° (N) 2,727 6.9 -16.3°
Sets 20:00:33 0° 8° (N) 3,687 7.6 -16.6°
